Location: Les Chemineaux
(47.3024°N, 1.5104°E)
Time: 01:15:07
(UTC+00:00)

USA 59 Rocket - Pass Details

Date: 19 May 2025
Orbit: 373 x 1695 km, 63.3° (Epoch: 18 June)

Event Time Altitude Azimuth Distance (km) Brightness Sun altitude
Exits shadow 22:09:51 16° 69° (ENE) 1,144 1.4 -19.0°
Drops below altitude 10° 22:10:32 11° 61° (ENE) 1,388 1.9 -19.1°
Sets 22:12:39 0° 49° (NE) 2,248 3.2 -19.2°
